| time (UTC) | temp C | wind direction | speed KPH | gust KPH | rain 1hr cm | rain 24hr cm | rain mn cm | humidity % | barometer mb |
| 20260508013101 | 5 | 71 | 1.6 | 6.4 | 0.00 | 0.00 | 0.00 | 87 | 1013.9 |
| 20260508012101 | 5 | 84 | 1.6 | 4.8 | 0.00 | 0.00 | 0.00 | 88 | 1013.9 |
| 20260508011100 | 5 | 96 | 1.6 | 4.8 | 0.00 | 0.00 | 0.00 | 89 | 1013.9 |
| 20260508010100 | 5 | 96 | 1.6 | 4.8 | 0.00 | 0.00 | 0.00 | 88 | 1013.9 |
| 20260508005058 | 5 | 102 | 1.6 | 4.8 | 0.00 | 0.00 | 0.00 | 87 | 1013.8 |
| 20260508004058 | 5 | 108 | 1.6 | 4.8 | 0.00 | 0.00 | 0.00 | 85 | 1013.8 |
| 20260508003058 | 6 | 108 | 1.6 | 4.8 | 0.00 | 0.00 | 0.00 | 85 | 1013.8 |
| 20260508002056 | 6 | 111 | 1.6 | 6.4 | 0.00 | 0.00 | 0.00 | 84 | 1014.0 |
| 20260508001056 | 6 | 116 | 1.6 | 6.4 | 0.00 | 0.00 | 0.00 | 84 | 1014.0 |
| 20260508000056 | 6 | 116 | 1.6 | 6.4 | 0.00 | 0.00 | 0.00 | 85 | 1014.0 |
| 20260507235055 | 6 | 119 | 3.2 | 6.4 | 0.00 | 0.00 | 0.00 | 85 | 1014.2 |
| 20260507234054 | 6 | 122 | 3.2 | 6.4 | 0.00 | 0.00 | 0.00 | 83 | 1014.1 |
| 20260507233053 | 6 | 122 | 3.2 | 6.4 | 0.00 | 0.00 | 0.00 | 83 | 1014.2 |
| 20260507232052 | 6 | 118 | 4.8 | 9.7 | 0.00 | 0.00 | 0.00 | 83 | 1014.2 |
| 20260507231051 | 7 | 120 | 4.8 | 9.7 | 0.00 | 0.00 | 0.00 | 82 | 1014.3 |
| 20260507230050 | 7 | 120 | 4.8 | 9.7 | 0.00 | 0.00 | 0.00 | 81 | 1014.3 |
| 20260507225049 | 7 | 119 | 4.8 | 11.3 | 0.00 | 0.00 | 0.00 | 83 | 1014.3 |
| 20260507224048 | 7 | 116 | 4.8 | 11.3 | 0.00 | 0.00 | 0.00 | 82 | 1014.4 |
| 20260507223047 | 7 | 116 | 4.8 | 11.3 | 0.00 | 0.00 | 0.00 | 82 | 1014.3 |
| 20260507222046 | 7 | 114 | 4.8 | 11.3 | 0.00 | 0.00 | 0.00 | 82 | 1014.5 |
| 20260507221045 | 7 | 112 | 4.8 | 11.3 | 0.00 | 0.00 | 0.00 | 83 | 1014.4 |
| 20260507220044 | 8 | 112 | 4.8 | 11.3 | 0.00 | 0.00 | 0.00 | 81 | 1014.5 |
| 20260507215043 | 8 | 114 | 4.8 | 11.3 | 0.00 | 0.00 | 0.00 | 82 | 1014.4 |
| 20260507214042 | 8 | 115 | 4.8 | 11.3 | 0.00 | 0.00 | 0.00 | 82 | 1014.4 |
| 20260507213040 | 8 | 115 | 4.8 | 11.3 | 0.00 | 0.00 | 0.00 | 81 | 1014.5 |
| 20260507212040 | 8 | 118 | 4.8 | 11.3 | 0.00 | 0.00 | 0.00 | 81 | 1014.4 |
| 20260507211039 | 8 | 120 | 6.4 | 12.9 | 0.00 | 0.00 | 0.00 | 80 | 1014.4 |
| 20260507210038 | 9 | 120 | 6.4 | 12.9 | 0.00 | 0.00 | 0.00 | 79 | 1014.4 |
| 20260507205036 | 9 | 122 | 6.4 | 14.5 | 0.00 | 0.00 | 0.00 | 78 | 1014.4 |
| 20260507204036 | 9 | 123 | 8.0 | 16.1 | 0.00 | 0.00 | 0.00 | 78 | 1014.3 |
| 20260507203035 | 10 | 123 | 6.4 | 14.5 | 0.00 | 0.00 | 0.00 | 77 | 1014.3 |
| 20260507202035 | 10 | 124 | 8.0 | 16.1 | 0.00 | 0.00 | 0.00 | 76 | 1014.2 |
| 20260507201034 | 10 | 124 | 9.7 | 17.7 | 0.00 | 0.00 | 0.00 | 75 | 1014.1 |
| 20260507200034 | 10 | 124 | 9.7 | 17.7 | 0.00 | 0.00 | 0.00 | 74 | 1013.9 |
| 20260507195031 | 10 | 120 | 8.0 | 16.1 | 0.00 | 0.00 | 0.00 | 74 | 1013.8 |
| 20260507194031 | 10 | 121 | 8.0 | 16.1 | 0.00 | 0.00 | 0.00 | 73 | 1013.8 |
| 20260507193030 | 11 | 121 | 8.0 | 16.1 | 0.00 | 0.00 | 0.00 | 71 | 1013.7 |
| 20260507192029 | 11 | 123 | 8.0 | 17.7 | 0.00 | 0.00 | 0.00 | 70 | 1013.5 |
| 20260507191028 | 11 | 124 | 9.7 | 17.7 | 0.00 | 0.00 | 0.00 | 69 | 1013.6 |
| 20260507190027 | 11 | 124 | 9.7 | 17.7 | 0.00 | 0.00 | 0.00 | 68 | 1013.5 |
| 20260507185026 | 11 | 127 | 9.7 | 19.3 | 0.00 | 0.00 | 0.00 | 66 | 1013.5 |
| 20260507184025 | 12 | 129 | 11.3 | 20.9 | 0.00 | 0.00 | 0.00 | 65 | 1013.5 |
| 20260507183024 | 12 | 128 | 11.3 | 20.9 | 0.00 | 0.00 | 0.00 | 65 | 1013.5 |
| 20260507182023 | 12 | 130 | 11.3 | 20.9 | 0.00 | 0.00 | 0.00 | 64 | 1013.4 |
| 20260507181023 | 12 | 132 | 11.3 | 22.5 | 0.00 | 0.00 | 0.00 | 62 | 1016.4 |
| 20260507180022 | 12 | 132 | 11.3 | 22.5 | 0.00 | 0.00 | 0.00 | 62 | 1013.3 |
| 20260507175019 | 12 | 134 | 11.3 | 22.5 | 0.00 | 0.00 | 0.00 | 61 | 1013.4 |
| 20260507174018 | 12 | 141 | 11.3 | 20.9 | 0.00 | 0.00 | 0.00 | 60 | 1013.2 |
| 20260507173017 | 12 | 141 | 11.3 | 20.9 | 0.00 | 0.00 | 0.00 | 58 | 1013.2 |
| 20260507172014 | 12 | 143 | 11.3 | 20.9 | 0.00 | 0.00 | 0.00 | 58 | 1013.4 |
| 20260507171012 | 12 | 144 | 11.3 | 20.9 | 0.00 | 0.00 | 0.00 | 56 | 1013.4 |
| 20260507170008 | 12 | 127 | 9.7 | 17.7 | 0.00 | 0.00 | 0.00 | 57 | 1013.4 |
| 20260507165007 | 12 | 127 | 9.7 | 17.7 | 0.00 | 0.00 | 0.00 | 57 | 1013.4 |
| 20260507164005 | 13 | 126 | 8.0 | 16.1 | 0.00 | 0.00 | 0.00 | 55 | 1013.3 |
| 20260507163000 | 13 | 125 | 8.0 | 16.1 | 0.00 | 0.00 | 0.00 | 54 | 1013.3 |
| 20260507161959 | 13 | 125 | 8.0 | 16.1 | 0.00 | 0.00 | 0.00 | 54 | 1013.3 |
| 20260507160957 | 13 | 124 | 8.0 | 17.7 | 0.00 | 0.00 | 0.00 | 53 | 1013.4 |
| 20260507155957 | 13 | 130 | 9.7 | 17.7 | 0.00 | 0.00 | 0.00 | 53 | 1013.3 |
| 20260507154957 | 13 | 130 | 9.7 | 17.7 | 0.00 | 0.00 | 0.00 | 55 | 1013.4 |
| 20260507153956 | 13 | 134 | 9.7 | 19.3 | 0.00 | 0.00 | 0.00 | 56 | 1013.4 |
| 20260507152955 | 13 | 139 | 9.7 | 19.3 | 0.00 | 0.00 | 0.00 | 56 | 1013.4 |
| 20260507151954 | 13 | 139 | 9.7 | 19.3 | 0.00 | 0.00 | 0.00 | 56 | 1013.4 |
| 20260507150954 | 13 | 144 | 9.7 | 19.3 | 0.00 | 0.00 | 0.00 | 56 | 1013.3 |
| 20260507145953 | 13 | 148 | 9.7 | 19.3 | 0.00 | 0.00 | 0.00 | 56 | 1013.3 |
| 20260507144952 | 13 | 148 | 9.7 | 19.3 | 0.00 | 0.00 | 0.00 | 55 | 1013.3 |
| 20260507143952 | 13 | 151 | 11.3 | 20.9 | 0.00 | 0.00 | 0.00 | 53 | 1013.3 |
| 20260507142951 | 14 | 165 | 9.7 | 17.7 | 0.00 | 0.00 | 0.00 | 52 | 1013.4 |
| 20260507141950 | 15 | 165 | 9.7 | 17.7 | 0.00 | 0.00 | 0.00 | 50 | 1013.4 |
| 20260507140949 | 15 | 168 | 8.0 | 17.7 | 0.00 | 0.00 | 0.00 | 50 | 1013.5 |
| 20260507135948 | 15 | 147 | 8.0 | 16.1 | 0.00 | 0.00 | 0.00 | 49 | 1013.4 |
| 20260507134947 | 15 | 147 | 8.0 | 16.1 | 0.00 | 0.00 | 0.00 | 47 | 1013.4 |
| 20260507133946 | 15 | 135 | 6.4 | 14.5 | 0.00 | 0.00 | 0.00 | 45 | 1013.4 |
| 20260507132945 | 16 | 124 | 6.4 | 12.9 | 0.00 | 0.00 | 0.00 | 44 | 1013.4 |
| 20260507131944 | 16 | 124 | 6.4 | 12.9 | 0.00 | 0.00 | 0.00 | 45 | 1013.5 |
| 20260507130943 | 15 | 112 | 4.8 | 12.9 | 0.00 | 0.00 | 0.00 | 47 | 1013.5 |
| 20260507125943 | 16 | 117 | 4.8 | 11.3 | 0.00 | 0.00 | 0.00 | 45 | 1013.4 |
| 20260507124942 | 16 | 109 | 4.8 | 11.3 | 0.00 | 0.00 | 0.00 | 45 | 1013.5 |
| 20260507123941 | 16 | 110 | 4.8 | 11.3 | 0.00 | 0.00 | 0.00 | 44 | 1013.4 |
| 20260507122940 | 16 | 111 | 4.8 | 12.9 | 0.00 | 0.00 | 0.00 | 45 | 1013.4 |
| 20260507121940 | 16 | 111 | 4.8 | 11.3 | 0.00 | 0.00 | 0.00 | 44 | 1013.4 |
| 20260507120939 | 15 | 110 | 3.2 | 11.3 | 0.00 | 0.00 | 0.00 | 47 | 1013.5 |
| 20260507115939 | 16 | 107 | 3.2 | 11.3 | 0.00 | 0.00 | 0.00 | 45 | 1013.5 |
| 20260507114938 | 16 | 107 | 3.2 | 11.3 | 0.00 | 0.00 | 0.00 | 44 | 1013.6 |
| 20260507113937 | 17 | 103 | 3.2 | 12.9 | 0.00 | 0.00 | 0.00 | 45 | 1013.6 |
| 20260507112936 | 17 | 100 | 3.2 | 12.9 | 0.00 | 0.00 | 0.00 | 43 | 1013.6 |
| 20260507111936 | 17 | 100 | 3.2 | 12.9 | 0.00 | 0.00 | 0.00 | 45 | 1013.6 |
| 20260507110935 | 16 | 96 | 4.8 | 12.9 | 0.00 | 0.00 | 0.00 | 47 | 1013.7 |
| 20260507105934 | 15 | 99 | 4.8 | 12.9 | 0.00 | 0.00 | 0.00 | 49 | 1013.9 |
| 20260507104934 | 15 | 99 | 3.2 | 11.3 | 0.00 | 0.00 | 0.00 | 48 | 1013.9 |
| 20260507103934 | 15 | 105 | 3.2 | 11.3 | 0.00 | 0.00 | 0.00 | 49 | 1013.9 |
| 20260507102932 | 14 | 112 | 3.2 | 11.3 | 0.00 | 0.00 | 0.00 | 52 | 1014.0 |
| 20260507101932 | 15 | 112 | 3.2 | 11.3 | 0.00 | 0.00 | 0.00 | 49 | 1014.1 |
| 20260507100931 | 15 | 134 | 3.2 | 11.3 | 0.00 | 0.00 | 0.00 | 47 | 1014.0 |
| 20260507095930 | 16 | 130 | 3.2 | 11.3 | 0.00 | 0.00 | 0.00 | 45 | 1013.9 |
| 20260507094929 | 15 | 130 | 3.2 | 11.3 | 0.00 | 0.00 | 0.00 | 48 | 1013.9 |
| 20260507093928 | 14 | 126 | 3.2 | 12.9 | 0.00 | 0.00 | 0.00 | 50 | 1013.9 |
| 20260507092927 | 15 | 122 | 3.2 | 12.9 | 0.00 | 0.00 | 0.00 | 51 | 1013.9 |
| 20260507091927 | 14 | 122 | 3.2 | 12.9 | 0.00 | 0.00 | 0.00 | 50 | 1013.9 |
| 20260507090927 | 14 | 118 | 4.8 | 12.9 | 0.00 | 0.00 | 0.00 | 51 | 1013.9 |
| 20260507085926 | 13 | 114 | 4.8 | 12.9 | 0.00 | 0.00 | 0.00 | 53 | 1013.8 |
| 20260507084925 | 13 | 114 | 4.8 | 12.9 | 0.00 | 0.00 | 0.00 | 54 | 1013.8 |
| 20260507083924 | 13 | 110 | 4.8 | 12.9 | 0.00 | 0.00 | 0.00 | 56 | 1013.8 |
| 20260507082923 | 12 | 106 | 6.4 | 12.9 | 0.00 | 0.00 | 0.00 | 56 | 1013.7 |
| 20260507081922 | 13 | 106 | 6.4 | 12.9 | 0.00 | 0.00 | 0.00 | 55 | 1013.7 |
| 20260507080921 | 13 | 102 | 6.4 | 14.5 | 0.00 | 0.00 | 0.00 | 55 | 1013.7 |
| 20260507075920 | 13 | 96 | 6.4 | 14.5 | 0.00 | 0.00 | 0.00 | 55 | 1013.7 |
| 20260507074919 | 12 | 96 | 6.4 | 14.5 | 0.00 | 0.00 | 0.00 | 57 | 1013.7 |
| 20260507073918 | 12 | 93 | 6.4 | 14.5 | 0.00 | 0.00 | 0.00 | 57 | 1013.7 |
| 20260507072917 | 12 | 91 | 6.4 | 14.5 | 0.00 | 0.00 | 0.00 | 60 | 1013.5 |
| 20260507071915 | 11 | 91 | 6.4 | 14.5 | 0.00 | 0.00 | 0.00 | 63 | 1013.5 |
| 20260507070914 | 10 | 88 | 6.4 | 14.5 | 0.00 | 0.00 | 0.00 | 66 | 1013.4 |
| 20260507065914 | 10 | 83 | 6.4 | 12.9 | 0.00 | 0.00 | 0.00 | 69 | 1013.5 |
| 20260507064913 | 10 | 83 | 6.4 | 12.9 | 0.00 | 0.00 | 0.00 | 72 | 1013.5 |
| 20260507063912 | 9 | 78 | 4.8 | 11.3 | 0.00 | 0.00 | 0.00 | 73 | 1013.5 |
| 20260507062911 | 9 | 81 | 4.8 | 11.3 | 0.00 | 0.00 | 0.00 | 73 | 1013.5 |
| 20260507061911 | 8 | 81 | 4.8 | 11.3 | 0.00 | 0.00 | 0.00 | 75 | 1013.4 |
| 20260507060909 | 8 | 76 | 4.8 | 9.7 | 0.00 | 0.00 | 0.00 | 75 | 1013.3 |
| 20260507055909 | 8 | 64 | 3.2 | 8.0 | 0.00 | 0.00 | 0.00 | 76 | 1013.2 |
| 20260507054908 | 8 | 64 | 3.2 | 8.0 | 0.00 | 0.00 | 0.00 | 77 | 1013.2 |
| 20260507053907 | 8 | 52 | 3.2 | 6.4 | 0.00 | 0.00 | 0.00 | 78 | 1013.1 |
| 20260507052906 | 8 | 40 | 3.2 | 8.0 | 0.00 | 0.00 | 0.00 | 79 | 1013.1 |
| 20260507051905 | 7 | 40 | 3.2 | 8.0 | 0.00 | 0.00 | 0.00 | 80 | 1013.1 |
| 20260507050903 | 7 | 50 | 3.2 | 6.4 | 0.00 | 0.00 | 0.00 | 80 | 1013.0 |
| 20260507045903 | 7 | 53 | 3.2 | 6.4 | 0.00 | 0.00 | 0.00 | 81 | 1013.1 |
| 20260507044902 | 7 | 53 | 3.2 | 6.4 | 0.00 | 0.00 | 0.00 | 81 | 1013.0 |
| 20260507043902 | 7 | 56 | 1.6 | 6.4 | 0.00 | 0.00 | 0.00 | 81 | 1012.9 |
| 20260507042901 | 7 | 59 | 1.6 | 6.4 | 0.00 | 0.00 | 0.00 | 81 | 1012.8 |
| 20260507041900 | 7 | 59 | 1.6 | 6.4 | 0.00 | 0.00 | 0.00 | 81 | 1012.8 |
| 20260507040859 | 7 | 62 | 3.2 | 6.4 | 0.00 | 0.00 | 0.00 | 81 | 1012.8 |
| 20260507035858 | 7 | 61 | 3.2 | 8.0 | 0.00 | 0.00 | 0.00 | 80 | 1012.7 |
| 20260507034857 | 7 | 61 | 3.2 | 8.0 | 0.00 | 0.00 | 0.00 | 80 | 1012.7 |
| 20260507033857 | 8 | 41 | 1.6 | 4.8 | 0.00 | 0.00 | 0.00 | 79 | 1012.7 |
| 20260507032856 | 7 | 32 | 1.6 | 4.8 | 0.00 | 0.00 | 0.00 | 80 | 1012.6 |
| 20260507031855 | 8 | 32 | 1.6 | 4.8 | 0.00 | 0.00 | 0.00 | 80 | 1012.6 |
| 20260507030854 | 8 | 22 | 3.2 | 6.4 | 0.00 | 0.00 | 0.00 | 80 | 1012.6 |
| 20260507025853 | 8 | 34 | 4.8 | 9.7 | 0.00 | 0.00 | 0.00 | 80 | 1012.6 |
| 20260507024853 | 8 | 42 | 4.8 | 9.7 | 0.00 | 0.00 | 0.00 | 80 | 1012.6 |
| 20260507023852 | 8 | 50 | 4.8 | 9.7 | 0.00 | 0.00 | 0.00 | 80 | 1012.5 |
| 20260507022851 | 8 | 58 | 6.4 | 11.3 | 0.00 | 0.00 | 0.00 | 81 | 1012.5 |
| 20260507021850 | 8 | 58 | 6.4 | 11.3 | 0.00 | 0.00 | 0.00 | 82 | 1012.5 |
| 20260507020849 | 8 | 66 | 6.4 | 12.9 | 0.00 | 0.00 | 0.00 | 81 | 1012.6 |
| 20260507015848 | 8 | 64 | 6.4 | 12.9 | 0.00 | 0.00 | 0.00 | 80 | 1012.4 |
| 20260507014847 | 8 | 64 | 6.4 | 12.9 | 0.00 | 0.00 | 0.00 | 80 | 1012.4 |